Other Surface Observations
Issued by NWS

Home | Current Version | Previous Version | Text Only | Print | Product List | Glossary On
Versions: 1 2 3 4 5 6 7 8 9 10 11 12 13 14 15 16 17 18 19 20 21 22 23 24 25 26 27 28 29 30 31 32 33 34 35 36 37 38 39 40 41 42 43 44 45 46 47 48 49 50
000
SXUS52 KTAE 040018
OSOTAE
OSOTAE
North Florida/South Alabama/Southwest Georgia Weather Roundup
National Weather Service Tallahassee Florida
800 PM EDT TUE MAY 03 2016

Note: "fair" indicates few or no clouds below 12,000 feet with no
significant weather and/or obstructions to visibility.

!FLZ017-115-028-034-025-040100
...North Florida...

CITY           SKY/WX    TMP DP  RH WIND       PRES   REMARKS
TALLAHASSEE    MOCLDY    79  72  79 SW13      29.83S THUNDER
APALACHICOLA   PTCLDY    76  75  97 SW6       29.85S
PERRY          CLEAR     78  69  73 S5        29.86R
CROSS CITY       N/A     79  69  71 SW7       29.86R
JACKSONVILLE   CLOUDY    81  68  64 SW8       29.81S
$$

!FLZ112-006-005-002-011-040100
...Florida Panhandle...

CITY           SKY/WX    TMP DP  RH WIND       PRES   REMARKS
MARIANNA       CLOUDY    73  69  87 NW6       29.83F
BONIFAY        CLOUDY    70  67  90 SW8       29.86S THUNDER
PANAMA CITY NW CLOUDY    77  70  79 SW10      29.84R
TYNDALL AFB    CLEAR     77  71  82 SW9       29.84F
TYND DRONE APT MOCLDY    75  72  88 SW9       29.84F
DE FUNIAK SPR  TSTM      71  70  99 SW6       29.86S
EGLIN AFB      LGT RAIN  73  69  90 NW5       29.84F
DESTIN         PTCLDY    76  73  91 VRB3      29.85S
HURLBURT       TSTM      72  70  94 W7        29.83F
CRESTVIEW      MOCLDY    76  67  73 NW8       29.87R
PENSACOLA        N/A     75  68  78 N9        29.86S
$$

!ALZ063-066-040100
...South Alabama...

CITY           SKY/WX    TMP DP  RH WIND       PRES   REMARKS
DOTHAN         MOCLDY    75  65  70 NW10      29.87S
OZARK CAIRNS   CLOUDY    74  67  77 NW6       29.84S
FT RUCKER HELI CLOUDY    76  64  66 NW6       29.84S
RUCKER HELI 3  MOCLDY    74  65  73 NW8       29.87S
RUCKER HELI 2  NOT AVBL
FLORALA APT    PTCLDY    72  66  81 CALM      29.88R
ANDALUSIA      PTCLDY    76  64  66 NW9       29.86S
TROY           PTCLDY    72  64  76 NW7       29.88R
EUFALA         CLOUDY    75  65  70 NW3       29.84R
MOBILE         CLOUDY    72  65  78 NW7       29.90S
$$

!GAZ120>161-040100
...Southwest and South Central Georgia...

CITY           SKY/WX    TMP DP  RH WIND       PRES   REMARKS
THOMASVILLE    LGT RAIN  70  66  88 SW6       29.86S
BAINBRIDGE     PTCLDY    73  70  88 NW5       29.84R
MOODY AFB      LGT RAIN  68  64  88 W6        29.84F
VALDOSTA       CLOUDY    68  68 100 CALM      29.85S
MOULTRIE       CLOUDY    72  68  88 S7        29.86R
BLAKELY        MOCLDY    72  70  94 CALM      29.85R
ALBANY         CLOUDY    71  68  90 W7        29.86S
TIFTON         MOCLDY    72  72  98 CALM      29.84F
FITZGERALD     MOCLDY    71  67  89 S7        29.86S THUNDER
CORDELE        TSTM      75  66  72 SW22G36   29.88R
AMERICUS       CLOUDY    73  61  64 W3        29.86S
HOMERVILLE     LGT RAIN  68  68 100 W5        29.83F
$$

!GMZ750-755-770-775-040100
...Coastal and Buoy Obs...

STATION/POSITION TIME  TEMP    WIND        PRES    VSBY  WAVE
                       AIR SEA DIR/SP/G                  HT/PER
                 (UTC) (F)     (DEG/KT/KT) (MB)    (MI)  (FT/S)
KEATON BEACH     0000   78     220/ 12/ 14 1010.9R
CEDAR KEY        0000   79     230/  7/  9 1011.8F
C TOWER          0000   76     240/ 13/ 14 1011.6S
APALACHICOLA BUO 2350   77 76  210/  6/  6 1011.4S         2/ 4
PANAMA CITY BUOY 2350   77 78  250/ 10/ 12 1011.0F         2/ 3
MOBILE BUOY      0000   76 77   CALM  /  2 1011.5F
ORANGE BCH AL BU 2350   76 79  260/ 10/ 12 1010.6R         3/ 6
$$




USA.gov is the U.S. government's official web portal to all federal, state and local government web resources and services.